Вернуться в каталог

COSMOS 2181

АктивенВоенныеPO
NORAD 21902·PAYLOAD·🇷🇺 Russia

Запущен Mar 9, 1992 с Plesetsk Cosmodrome

Loading…

Ближайшие Пролёты (ближайшие 24 часа)

TLE

СвежийSource: Space-Track

Эпоха: Sep 14, 2026, 10:30 UTC

1 21902U 92012A   26257.43793527  .00000015  00000-0 -36530-7 0  9991
2 21902  82.9397 242.1012 0028185 188.8622 333.9659 13.72575088728567

Отслеживайте COSMOS 2181 в реальном времени с AllMySat

Download on the App Store